376  
ASUS46 KLOX 212013  
RWRCA  
 
SOUTHERN CALIFORNIA WEATHER ROUNDUP  
NATIONAL WEATHER SERVICE OXNARD CALIFORNIA  
1200 PM PST TUE NOV 21 2017  
 
NOTE: "FAIR" INDICATES FEW OR NO CLOUDS BELOW 12,000 FEET WITH NO  
SIGNIFICANT WEATHER AND/OR S TO VISIBILITY
.  
 
- STATIONS PRECEEDED BY AN ASTERISK (*) ARE NOT NWS OR FAA  
STATIONS AND ARE NOT SUBJECT TO NWS AND FAA QUALITY CONTROL.
 
 
CAZ041-042-087-212100-  
LA AND ORANGE COUNTY COASTAL AREAS  
 
 
CITY SKY/WX TMP DP RH WIND PRES REMARKS
 
L.A. DOWNTOWN SUNNY 87 29 12 CALM 30.03F  
L.A. AIRPORT PTSUNNY 78 39 24 W9 30.05F  
LONG BEACH SUNNY 86 35 16 NW5 30.04F  
 
CITY SKY/WX TMP DP RH WIND PRES REMARKS
 
FULLERTON SUNNY 85 39 19 CALM 30.03F  
*GETTY CENTER N/A 86 32 14 S3 N/A  
HAWTHORNE SUNNY 83 42 23 W5 30.04F  
*LEO CARRILLO N/A 72 53 52 W9 N/A  
*LOS ALAMITOS PTSUNNY 84 40 20 CALM 30.03F  
*REDONDO BEACH N/A 75 43 31 W2 30.04F  
SANTA ANA PTSUNNY 80 46 30 SW7 30.04F  
STA MONICA APT SUNNY 77 34 21 SW9 30.05F  
*STA MON PIER N/A 66 56 70 NW5 30.03  
TORRANCE MOSUNNY 79 45 29 W7 30.05F  
*UCLA N/A 79 32 18 S2 30.02F  
 

 
 
CAZ547-548-048-212100-  
LA COUNTY VALLEYS AND INLAND EMPIRE  
 
 
CITY SKY/WX TMP DP RH WIND PRES REMARKS
 
BURBANK SUNNY 88 25 10 VRB5 30.06F  
VAN NUYS MOSUNNY 87 12 6 N14 30.06F  
 
CITY SKY/WX TMP DP RH WIND PRES REMARKS
 
CORONA AIRPORT CLEAR 89 37 16 CALM 30.05F  
*CHATSWORTH N/A 87 29 12 N6 30.03F  
CHINO MOSUNNY 87 38 17 CALM 30.07F  
*CLAREMONT N/A 84 31 15 CALM N/A  
MARCH AFB SUNNY 88 22 9 E8 30.09F  
*NORTHRIDGE N/A 86 14 7 N5G16 N/A  
ONTARIO CLOUDY 85 26 11 W5 30.07F  
*PASADENA N/A 88 43 20 CALM N/A  
POMONA SUNNY 82 27 13 CALM 30.10F  
RIVERSIDE MOSUNNY 90 32 12 NE8 30.06F  
SAN BERNARDINO PTSUNNY 90 28 11 CALM 30.08F  
*SAN RAFAEL HI N/A 87 30 13 S3 N/A  
*SAUGUS N/A 84 13 7 N7 N/A  
*WHITEMAN AP SUNNY 86 19 8 W9 30.10F  
*WHITTIER HILL N/A 88 27 11 E3 N/A  
*WOODLAND HILL N/A 91 23 8 W3 N/A  
 

 
 
CAZ054-055-212100-  
LA AND SAN BERNARDINO COUNTY MOUNTAINS  
 
 
CITY SKY/WX TMP DP RH WIND PRES REMARKS
 
*ACTON N/A 70 11 10 NE14 N/A  
*BIG BEAR AIRP CLEAR 61 32 33 NE10 30.41F  
*BIG PINES N/A 67 30 25 SE3 N/A  
*CHILAO N/A 81 29 15 S6 N/A  
SANDBERG SUNNY 72 23 16 NE10G20 30.32F  
*WARM SPRINGS N/A 72 20 14 NE14 N/A  
 

 
 
CAZ028-029-059-060-099-212100-  
ANTELOPE VALLEY AND SURROUNDING AREAS  
 
 
CITY SKY/WX TMP DP RH WIND PRES REMARKS
 
LANCASTER SUNNY 68 10 10 CALM 30.26F  
PALMDALE SUNNY 69 13 11 NW3 30.26F  
*POPPY PARK N/A 70 17 13 E6 N/A  
 
CITY SKY/WX TMP DP RH WIND PRES REMARKS
 
29 PALMS SUNNY 78 5 6 N5 30.26F  
BARSTOW/DAGGET MOSUNNY 70 9 9 W6 30.23F  
BISHOP SUNNY 70 38 31 N5 30.29F  
CHINA LAKE PTSUNNY 67 17 14 CALM 30.25F  
EDWARDS AFB PTSUNNY 66 6 9 NE3 30.23F  
MOJAVE SUNNY 68 21 17 E3 30.27F  
NEEDLES SUNNY 78 11 8 N9 30.14F  
VICTORVILLE MOSUNNY 70 10 10 CALM 30.26F  
 

 
 
CAZ039-040-212100-  
VENTURA AND SANTA BARBARA COUNTY COAST  
 
 
CITY SKY/WX TMP DP RH WIND PRES REMARKS
 
CAMARILLO MOSUNNY 81 52 36 S7 30.05F  
OXNARD AIRPORT MOSUNNY 73 50 44 NW12 30.05F  
*POINT MUGU PTSUNNY 72 55 55 SW7 30.06F  
SBA APT/GOLETA MOSUNNY 77 47 34 W8 30.06F  
*SANTA BARBARA N/A 82 45 26 CALM 30.12F  
*VENTURA N/A 79 50 36 W6 30.00F  
 

 
 
CAZ044-045-212100-  
VENTURA COUNTY VALLEYS  
 
 
CITY SKY/WX TMP DP RH WIND PRES REMARKS
 
*SIMI VALLEY N/A 84 26 12 N6 30.00F  
*WESTLAKE VILL N/A 85 38 18 CALM 30.04F  
*OJAI N/A 88 50 26 W1 29.99F  
*FILLMORE N/A 89 30 12 E3 30.07F  
 

 
 
CAZ053-212100-  
VENTURA COUNTY MOUNTAINS  
 
 
CITY SKY/WX TMP DP RH WIND PRES REMARKS
 
*LOCKWOOD VLY N/A 75 34 22 MISG N/A  
*FRAZIER MTN N/A 60 22 23 NE5 30.01F  
*ROSE VALLEY N/A 82 39 21 MISG N/A  
 

 
 
CAZ034-035-036-212100-  
CENTRAL COAST AND SANTA YNEZ VALLEY  
 
 
CITY SKY/WX TMP DP RH WIND PRES REMARKS
 
SAN LUIS OBISP SUNNY 86 46 24 W6 30.05F  
SANTA MARIA MOSUNNY 82 51 34 VRB3 30.07F  
 
CITY SKY/WX TMP DP RH WIND PRES REMARKS
 
*LOMPOC MOSUNNY 80 51 36 SW3 30.06  
*PISMO BEACH N/A 68 57 68 CALM 30.07F  
 

 
 
CAZ037-038-051-212100-  
SAN LUIS OBISPO COUNTY INTERIOR AND CUYAMA VALLEY  
 
 
CITY SKY/WX TMP DP RH WIND PRES REMARKS
 
*CUYAMA N/A 75 40 29 CALM 30.10F  
PASO ROBLES MOSUNNY 78 40 25 E13 30.13F  
 

 
 
CAZ032-033-061-212100-  
SOUTHERN DESERTS  
 
 
CITY SKY/WX TMP DP RH WIND PRES REMARKS
 
BLYTHE SUNNY 75 7 7 VRB3 30.11F  
IMPERIAL SUNNY 79 23 12 NW5 30.09F  
PALM SPRINGS SUNNY 81 21 11 SE3 30.12F  
THERMAL SUNNY 80 22 11 W3 30.08F  
 

 
 
ELSEWHERE ACROSS THE WESTERN UNITED STATES AND MEXICO  
 
 
CITY SKY/WX TMP DP RH WIND PRES REMARKS
 
DENVER, CO CLOUDY 42 31 64 CALM 30.32F  
GRAND CANYON, SUNNY 65 26 23 VRB6 30.36F  
HONOLULU, HI MOSUNNY 79 57 47 N9 29.99S  
KAHULUI, MAUI MOSUNNY 77 61 57 NE8 29.98S  
LAKE TAHOE, CA PTSUNNY 54 44 69 NE6 30.37F  
LAS VEGAS, NV PTSUNNY 67 14 13 CALM 30.23F  
MAMMOTH LAKES, FAIR 59 32 36 SE5 30.44F  
MEXICO CITY, M SUNNY 72 32 23 NW5 30.21F  
PHOENIX, AZ PTSUNNY 74 27 17 VRB3 30.06F  
PORTLAND, OR LGT RAIN 50 49 96 E13 29.94F  
RENO, NV PTSUNNY 61 43 51 CALM 30.30F  
SALT LAKE CITY PTSUNNY 61 38 42 N3 30.33F  
SAN DIEGO, CA MOSUNNY 78 37 22 NW6 30.05F  
SAN FRANCISCO, PTSUNNY 63 54 72 E6 30.14F  
SAN JOSE, CA PTSUNNY 69 53 56 CALM 30.14F  
SEATTLE, WA LGT RAIN 46 45 96 CALM 29.90F FOG  
TIJUANA, MEX MOSUNNY 84 27 12 NW9 30.06F  
 

 
 
STATION/POSITION TIME TEMP WIND PRES VSBY WAVE
 
AIR SEA DIR/SP/G HT/PER  
(UTC) (F) (DEG/KT/KT) (MB) (MI) (FT/S)  
POINT ARGUELLO B NOT AVBL  
WEST SANTA BARBA 2000 62 59 320/ 2/ 4 1017.7  
POINT CONCEPTION NOT AVBL  
EAST SANTA BARBA 2000 62 60 330/ 4/ 4 1018.6  
SANTA MONICA BAY 2000 65 270/ 6/ 6 1017.6  
 
CLICK HERE TO GO TO PREVIOUS BULLETINS.

The Nexlab CA Page Main Text Page